Manassas, VA

7:57 PM EDT on June 22, 2017 (GMT -0400)
Manassas Regional-Davis

Weather History for KHEF - November, 2012

Change the Weather History Date:

Saturday, November 24, 2012

  Actual Average Record
Temperature  
Mean Temperature 42 °F -  
Max Temperature 48 °F 52 °F 71 °F (2014)
Min Temperature 33 °F 30 °F 14 °F (2000)
Degree Days  
Heating Degree Days 24    
Moisture  
Dew Point 21 °F    
Average Humidity 50    
Maximum Humidity 60    
Minimum Humidity 37    
Precipitation  
Precipitation 0.00 in - - ()
Sea Level Pressure  
Sea Level Pressure 29.98 in    
Wind  
Wind Speed 15 mph (NW)    
Max Wind Speed 22 mph    
Max Gust Speed 32 mph    
Visibility 10 miles    
Events      
Averages and records for this station are not official NWS values.
T = Trace of Precipitation, MM = Missing Value Source: NWS Daily Summary

Daily Weather History Graph

Daily Weather History Graph

Search for Another Location

Airport or City:

Trip Planner

Search our weather history database for the weather conditions in past years. The results will help you decide how hot, cold, wet, or windy it might be!

Date:

Astronomy

Nov. 24, 2012 Rise Set
Actual Time 7:02 AM EST 4:51 PM EST
Civil Twilight 6:33 AM EST 5:20 PM EST
Nautical Twilight 6:00 AM EST 5:52 PM EST
Astronomical Twilight 5:29 AM EST 6:24 PM EST
Moon 2:33 PM EST (11/24) 3:19 AM EST (11/24)
Length of Visible Light 10h 46m
Length of Day
9h 48m
Waxing Gibbous, 87% of the Moon is Illuminated
Nov 24
Waxing Gibbous
Nov 28
Full
Dec 6
Last Quarter
Dec 13
New
Dec 20
First Quarter

Hourly Weather History & Observations

Time (EST) Temp. Windchill Dew Point Humidity Pressure Visibility Wind Dir Wind Speed Gust Speed Precip Events Conditions
12:15 AM 48.2 °F - 26.6 °F 43% 29.85 in 10.0 mi NNW 11.5 mph 27.6 mph N/A   Clear
12:35 AM 46.4 °F 38.5 °F 28.4 °F 50% 29.85 in 10.0 mi NNW 21.9 mph 28.8 mph N/A   Clear
12:55 AM 44.6 °F 37.2 °F 28.4 °F 53% 29.86 in 10.0 mi NNW 17.3 mph 25.3 mph N/A   Clear
1:15 AM 44.6 °F 38.1 °F 26.6 °F 49% 29.88 in 10.0 mi NNW 13.8 mph 21.9 mph N/A   Scattered Clouds
1:35 AM 42.8 °F 34.8 °F 24.8 °F 49% 29.89 in 10.0 mi NNW 17.3 mph 25.3 mph N/A   Mostly Cloudy
1:55 AM 42.8 °F 33.8 °F 24.8 °F 49% 29.88 in 10.0 mi NW 21.9 mph 29.9 mph N/A   Partly Cloudy
2:15 AM 39.2 °F 29.8 °F 24.8 °F 56% 29.90 in 10.0 mi NNW 18.4 mph 23.0 mph N/A   Clear
2:35 AM 39.2 °F 30.8 °F 24.8 °F 56% 29.90 in 10.0 mi NW 15.0 mph - N/A   Clear
2:55 AM 39.2 °F 29.0 °F 24.8 °F 56% 29.91 in 10.0 mi NW 21.9 mph 31.1 mph N/A   Partly Cloudy
3:15 AM 37.4 °F 28.5 °F 21.2 °F 52% 29.93 in 10.0 mi NNW 15.0 mph 21.9 mph N/A   Partly Cloudy
3:35 AM 37.4 °F 26.9 °F 19.4 °F 48% 29.93 in 10.0 mi NW 20.7 mph 26.5 mph N/A   Partly Cloudy
3:55 AM 37.4 °F 27.8 °F 17.6 °F 45% 29.93 in 10.0 mi NW 17.3 mph 29.9 mph N/A   Clear
4:15 AM 35.6 °F 25.5 °F 17.6 °F 48% 29.94 in 10.0 mi NW 17.3 mph 21.9 mph N/A   Partly Cloudy
4:35 AM 37.4 °F 30.8 °F 17.6 °F 45% 29.94 in 10.0 mi NW 9.2 mph 20.7 mph N/A   Scattered Clouds
4:55 AM 35.6 °F 26.2 °F 19.4 °F 52% 29.94 in 10.0 mi NW 15.0 mph 23.0 mph N/A   Scattered Clouds
5:15 AM 35.6 °F 27.1 °F 19.4 °F 52% 29.96 in 10.0 mi NW 12.7 mph 27.6 mph N/A   Mostly Cloudy
5:35 AM 35.6 °F 26.6 °F 19.4 °F 52% 29.96 in 10.0 mi WNW 13.8 mph 19.6 mph N/A   Overcast
5:55 AM 35.6 °F 25.9 °F 19.4 °F 52% 29.95 in 10.0 mi NW 16.1 mph 21.9 mph N/A   Scattered Clouds
6:15 AM 35.6 °F 28.0 °F 19.4 °F 52% 29.96 in 10.0 mi NW 10.4 mph 21.9 mph N/A   Mostly Cloudy
7:45 AM 37.4 °F 29.8 °F 21.2 °F 52% 29.98 in 10.0 mi NW 11.5 mph 19.6 mph N/A   Mostly Cloudy
8:55 AM 37.4 °F 28.5 °F 21.2 °F 52% 30.00 in 10.0 mi NNW 15.0 mph 20.7 mph N/A   Overcast
10:45 AM 39.2 °F 31.2 °F 19.4 °F 45% 29.99 in 10.0 mi NNW 13.8 mph 31.1 mph N/A   Overcast
12:55 PM 44.6 °F 36.9 °F 19.4 °F 37% 29.96 in 10.0 mi NW 18.4 mph 29.9 mph N/A   Overcast
2:55 PM 42.8 °F 34.0 °F 19.4 °F 39% 29.98 in 10.0 mi NNW 20.7 mph 32.2 mph N/A   Overcast
3:55 PM 39.2 °F 30.5 °F 17.6 °F 42% 30.00 in 10.0 mi NW 16.1 mph 32.2 mph N/A   Scattered Clouds
5:45 PM 37.4 °F 27.8 °F 17.6 °F 45% 30.01 in 10.0 mi WNW 17.3 mph 27.6 mph N/A   Clear
6:50 PM 35.6 °F 28.6 °F 17.6 °F 48% 30.03 in 10.0 mi NW 9.2 mph 17.3 mph N/A   Partly Cloudy
7:55 PM 35.6 °F 28.0 °F 19.4 °F 52% 30.04 in 10.0 mi NW 10.4 mph 23.0 mph N/A   Scattered Clouds
8:55 PM 35.6 °F 29.2 °F 19.4 °F 52% 30.06 in 10.0 mi WNW 8.1 mph 16.1 mph N/A   Overcast
9:15 PM 35.6 °F 27.5 °F 19.4 °F 52% 30.06 in 10.0 mi WNW 11.5 mph 16.1 mph N/A   Overcast
9:35 PM 35.6 °F 28.6 °F 19.4 °F 52% 30.07 in 10.0 mi NW 9.2 mph - N/A   Overcast
9:45 PM 35.6 °F 28.0 °F 19.4 °F 52% 30.07 in 10.0 mi WNW 10.4 mph - N/A   Mostly Cloudy
9:55 PM 35.6 °F 28.0 °F 19.4 °F 52% 30.07 in 10.0 mi NW 10.4 mph - N/A   Overcast
10:15 PM 35.6 °F 27.5 °F 19.4 °F 52% 30.07 in 10.0 mi NW 11.5 mph 20.7 mph N/A   Overcast
10:35 PM 35.6 °F 29.9 °F 19.4 °F 52% 30.07 in 10.0 mi WNW 6.9 mph 19.6 mph N/A   Overcast
10:55 PM 35.6 °F 27.1 °F 19.4 °F 52% 30.07 in 10.0 mi WNW 12.7 mph 20.7 mph N/A   Mostly Cloudy
11:15 PM 35.6 °F 29.2 °F 19.4 °F 52% 30.07 in 10.0 mi WNW 8.1 mph - N/A   Mostly Cloudy
11:35 PM 35.6 °F 29.9 °F 21.2 °F 56% 30.07 in 10.0 mi WNW 6.9 mph - N/A   Overcast
11:55 PM 33.8 °F 30.8 °F 21.2 °F 60% 30.07 in 10.0 mi SW 3.5 mph - N/A   Overcast